Change the Weather History Date:

Saturday, January 19, 2013

  Actual Average Record
Temperature  
Mean Temperature 54 °F -  
Max Temperature 67 °F 66 °F - ()
Min Temperature 41 °F 44 °F - ()
Degree Days  
Heating Degree Days 11    
Growing Degree Days 4 (Base 50)    
Moisture  
Dew Point 51 °F    
Average Humidity 85    
Maximum Humidity 100    
Minimum Humidity 36    
Precipitation  
Precipitation 0.28 in 0.05 in - ()
Sea Level Pressure  
Sea Level Pressure 29.93 in    
Wind  
Wind Speed 11 mph ()    
Max Wind Speed 28 mph    
Max Gust Speed 43 mph    
Visibility 4.7 miles    
Events Rain    
T = Trace of Precipitation, MM = Missing Value Source: Averaged Metar Reports

Daily Weather History Graph

Daily Weather History Graph

Search for Another Location

Airport or City:

Trip Planner

Search our weather history database for the weather conditions in past years. The results will help you decide how hot, cold, wet, or windy it might be!

Date:

Astronomy

Jan. 19, 2013 Rise Set
Actual Time 7:31 AM WET 5:54 PM WET
Civil Twilight 7:05 AM WET 6:21 PM WET
Nautical Twilight 6:35 AM WET 6:50 PM WET
Astronomical Twilight 6:06 AM WET 7:19 PM WET
Moon 12:08 PM WET (1/19) 12:58 AM WET (1/19)
Length of Visible Light 11h 16m
Length of Day
10h 23m
First Quarter, 55% of the Moon is Illuminated
Jan 19
First Quarter
Jan 27
Full
Feb 3
Last Quarter
Feb 10
New
Feb 17
First Quarter

Hourly Weather History & Observations

Time (WET) Temp. Dew Point Humidity Pressure Visibility Wind Dir Wind Speed Gust Speed Precip Events Conditions
12:00 AM 55 °F 54 °F 97% 30.02 in 3 mi WSW 9.2 mph - -  
12:00 AM 55.4 °F 53.6 °F 94% 30.01 in 3.1 mi WSW 9.2 mph - N/A   Unknown
2:00 AM 53.6 °F 53.6 °F 100% 29.98 in - West 10.4 mph - N/A   Scattered Clouds
2:30 AM 53.6 °F 53.6 °F 100% 29.98 in - West 8.1 mph - N/A   Scattered Clouds
3:00 AM 53 °F 53 °F 100% 29.97 in 6 mi West 6.9 mph - -   Scattered Clouds
3:00 AM 53.6 °F 53.6 °F 100% 29.98 in 6.2 mi West 6.9 mph - N/A   Scattered Clouds
3:30 AM 53.6 °F 53.6 °F 100% 29.98 in 6.2 mi SW 6.9 mph - N/A   Scattered Clouds
4:00 AM 53.6 °F 53.6 °F 100% 29.98 in 6.2 mi WSW 8.1 mph - N/A   Scattered Clouds
4:30 AM 55.4 °F 51.8 °F 88% 29.95 in 6.2 mi SSW 8.1 mph - N/A   Scattered Clouds
5:00 AM 55.4 °F 51.8 °F 88% 29.92 in 6.2 mi SW 8.1 mph - N/A   Scattered Clouds
5:30 AM 55.4 °F 51.8 °F 88% 29.95 in 6.2 mi West 9.2 mph - N/A   Scattered Clouds
6:00 AM 54 °F 51 °F 86% 29.93 in 6 mi West 9.2 mph - -   Partly Cloudy
6:00 AM 53.6 °F 51.8 °F 94% 29.92 in 6.2 mi West 9.2 mph - N/A   Unknown
7:00 AM 53.6 °F 50.0 °F 88% 29.92 in 6.2 mi SW 9.2 mph - N/A   Scattered Clouds
7:30 AM 53.6 °F 50.0 °F 88% 29.92 in 6.2 mi SSW 8.1 mph - N/A   Scattered Clouds
8:00 AM 53.6 °F 48.2 °F 82% 29.89 in 6.2 mi SSW 9.2 mph - N/A   Scattered Clouds
8:30 AM 53.6 °F 48.2 °F 82% 29.89 in 6.2 mi SW 9.2 mph - N/A   Scattered Clouds
9:00 AM 55 °F 48 °F 71% 29.93 in 6 mi West 9.2 mph - -   Partly Cloudy
9:00 AM 55.4 °F 48.2 °F 77% 29.92 in 6.2 mi WSW 8.1 mph - N/A   Scattered Clouds
9:30 AM 57.2 °F 48.2 °F 72% 29.92 in 6.2 mi West 10.4 mph - N/A   Scattered Clouds
10:00 AM 57.2 °F 48.2 °F 72% 29.95 in 6.2 mi West 15.0 mph - N/A   Scattered Clouds
10:30 AM 59.0 °F 48.2 °F 67% 29.95 in 6.2 mi WSW 15.0 mph - N/A   Scattered Clouds
11:00 AM 60.8 °F 46.4 °F 59% 29.92 in 6.2 mi SW 18.4 mph - N/A   Scattered Clouds
11:30 AM 62.6 °F 44.6 °F 52% 29.89 in 6.2 mi SW 19.6 mph - N/A   Scattered Clouds
12:00 PM 65 °F 44 °F 36% 29.83 in 6 mi SW 19.6 mph - -   Partly Cloudy
12:00 PM 64.4 °F 44.6 °F 49% 29.86 in 6.2 mi SW 19.6 mph - N/A   Scattered Clouds
12:20 PM 66.2 °F 46.4 °F 49% 29.83 in 1.9 mi WSW 24.2 mph 38.0 mph N/A   Scattered Clouds
12:30 PM 66.2 °F 46.4 °F 49% 29.83 in 1.9 mi WSW 27.6 mph 42.6 mph N/A   Scattered Clouds
1:00 PM 66.2 °F 48.2 °F 52% 29.83 in 1.9 mi West 27.6 mph 40.3 mph N/A   Scattered Clouds
1:09 PM 66.2 °F 50.0 °F 56% 29.83 in 3.1 mi West 23.0 mph 35.7 mph N/A   Scattered Clouds
1:30 PM 64.4 °F 51.8 °F 64% 29.83 in 3.1 mi West 27.6 mph 41.4 mph N/A   Scattered Clouds
2:00 PM 60.8 °F 53.6 °F 77% 29.83 in 6.2 mi West 18.4 mph 31.1 mph N/A Rain Rain
2:30 PM 59.0 °F 55.4 °F 88% 29.83 in - West 27.6 mph 42.6 mph N/A Rain Rain
3:00 PM 56 °F 54 °F 89% 29.86 in 1 mi West 27.6 mph - - Rain Rain
3:00 PM 57.2 °F 53.6 °F 88% 29.86 in 1.1 mi West 25.3 mph 42.6 mph N/A Rain Rain
3:30 PM 55.4 °F 53.6 °F 94% 29.86 in 3.1 mi West 23.0 mph - N/A Rain Rain
4:00 PM 53.6 °F 51.8 °F 94% 29.89 in 1.7 mi WNW 19.6 mph 31.1 mph N/A Rain Rain
4:30 PM 53.6 °F 53.6 °F 100% 29.89 in 1.5 mi WNW 16.1 mph - N/A Rain Rain
5:00 PM 53.6 °F 51.8 °F 94% 29.89 in 5.6 mi West 15.0 mph - N/A Rain Rain
5:21 PM 53.6 °F 51.8 °F 94% 29.92 in 1.9 mi West 10.4 mph - N/A Rain Mostly Cloudy
5:49 PM 51.8 °F 51.8 °F 100% 29.92 in 5.0 mi West 15.0 mph - N/A   Mostly Cloudy
6:00 PM 53 °F 51 °F 92% 29.93 in 5 mi West 13.8 mph - -   Partly Cloudy
6:00 PM 51.8 °F 51.8 °F 100% 29.92 in 5.0 mi West 13.8 mph - N/A   Mostly Cloudy
6:30 PM 51.8 °F 51.8 °F 100% 29.95 in 5.0 mi WSW 10.4 mph - N/A   Mostly Cloudy
7:00 PM 51.8 °F 51.8 °F 100% 29.95 in 5.0 mi WSW 9.2 mph - N/A   Mostly Cloudy
7:30 PM 51.8 °F 51.8 °F 100% 29.95 in 5.0 mi WSW 10.4 mph - N/A   Mostly Cloudy
8:00 PM 51.8 °F 50.0 °F 94% 29.98 in 4.3 mi WSW 9.2 mph - N/A   Mostly Cloudy
8:30 PM 51.8 °F 50.0 °F 94% 29.98 in 5.0 mi SW 9.2 mph - N/A   Mostly Cloudy
9:00 PM 51 °F 50 °F 97% 29.99 in 4 mi SW 9.2 mph - -   Partly Cloudy
9:00 PM 51.8 °F 50.0 °F 94% 29.98 in 4.3 mi SW 9.2 mph - N/A   Mostly Cloudy
9:30 PM 50.0 °F 50.0 °F 100% 29.98 in 4.3 mi WSW 8.1 mph - N/A   Mostly Cloudy
10:00 PM 50.0 °F 50.0 °F 100% 30.01 in 4.3 mi SW 11.5 mph - N/A Rain Light Rain
10:30 PM 50.0 °F 50.0 °F 100% 30.01 in 4.3 mi WSW 11.5 mph - N/A Rain Light Rain
11:00 PM 50.0 °F 50.0 °F 100% 30.01 in 5.0 mi SW 8.1 mph - N/A Rain Light Rain
11:30 PM 50.0 °F 50.0 °F 100% 30.01 in 5.0 mi SW 6.9 mph - N/A   Mostly Cloudy